[[{"header":{"parameterUnit":"m.s-1","parameterCategory":1,"la1":30.2991,"la2":30.254,"lo1":-89.0895,"lo2":-89.0444,"dy":0.0017,"dx":0.0017,"nx":28,"ny":28,"refTime":"2024-08-29T03:00:00:Z","depth":0,"parameterNumber":2,"parameterNumberName":"U-component_of_WINDS"},"data":[0,0,0,0,0,0,0,0,0,0,0,0,0,0,0,0,0,0,0,0,0,0,0,0,0,0,0,0,0,0,0,0,0,0,0,0,0,0,0,0,0,0,0,0,0,0,0,0,0,0,0,0,0,0,0,0,0,0,-2.0954,-2.0954,0,-2.091,-2.091,-2.0909,-2.09,-2.0901,-2.0901,-2.0902,-2.0857,-2.0855,-2.0854,0,0,0,0,0,0,0,0,0,0,0,0,0,-2.1032,-2.103,-2.0954,-2.0954,-2.0953,-2.091,-2.091,-2.0909,-2.09,-2.0901,-2.0901,-2.0902,-2.0857,-2.0856,-2.0854,0,0,0,0,0,0,0,0,0,0,0,0,0,-2.0994,-2.103,-2.0954,-2.0944,-2.0942,-2.091,-2.091,-2.0909,-2.09,-2.0901,-2.0901,-2.0902,-2.0858,-2.0856,-2.0854,-2.0829,0,0,-2.0847,-2.0846,0,0,0,0,0,0,0,0,-2.0996,-2.0991,-2.0946,-2.0944,-2.0943,-2.0911,-2.0921,-2.0882,-2.09,-2.0916,-2.0902,-2.0902,-2.0875,-2.0871,-2.0862,-2.0827,-2.0825,-2.0846,-2.0845,-2.0844,-2.0843,0,0,0,0,0,0,0,-2.0999,-2.0993,-2.0937,-2.0945,-2.0943,-2.0941,-2.0936,-2.0913,-2.0893,-2.0915,-2.0914,-2.0909,-2.0874,-2.0864,-2.0861,-2.0825,-2.0847,-2.0845,-2.0843,-2.0842,-2.0768,-2.0768,0,0,0,0,0,0,-2.1003,-2.0995,-2.0938,-2.0935,-2.0971,-2.0939,-2.0934,-2.0921,-2.0893,-2.089,-2.0909,-2.0909,-2.0867,-2.0863,-2.0859,-2.0829,-2.0844,-2.0842,-2.0841,-2.0769,-2.0768,-2.0768,0,0,0,0,0,0,-2.1005,-2.0998,-2.094,-2.0965,-2.0957,-2.0938,-2.0923,-2.092,-2.091,-2.0889,-2.0885,-2.0902,-2.0868,-2.0862,-2.0837,-2.0827,-2.0841,-2.0839,-2.077,-2.0769,-2.0768,-2.0768,0,0,0,0,0,0,-2.1007,-2.0999,-2.0989,-2.0965,-2.0956,-2.0918,-2.0922,-2.0918,-2.0906,-2.0905,-2.0881,-2.0878,-2.0868,-2.084,-2.0834,-2.0824,-2.0837,-2.077,-2.0769,-2.0768,-2.0769,-2.0767,-2.0766,0,0,0,0,0,-2.101,-2.0991,-2.0989,-2.0982,-2.0944,-2.0918,-2.0913,-2.0901,-2.0905,-2.0895,-2.0882,-2.0879,-2.0829,-2.0838,-2.0831,-2.082,-2.0771,-2.077,-2.0768,-2.0769,-2.0767,-2.0766,0,0,0,0,0,0,-2.1014,-2.0987,-2.0985,-2.0957,-2.094,-2.0916,-2.0903,-2.0899,-2.088,-2.0881,-2.0868,-2.0862,-2.0838,-2.0826,-2.0836,-2.0795,-2.08,-2.0798,-2.0803,-2.0801,-2.08,-2.0803,-2.0835,0,0,0,0,0,-2.1012,-2.0993,-2.0971,-2.0949,-2.094,-2.0923,-2.0912,-2.0904,-2.0886,-2.0878,-2.0863,-2.0845,-2.0826,-2.0813,-2.0794,-2.0767,-2.0762,-2.0756,-2.0755,-2.0754,-2.0752,-2.0737,-2.0734,-2.0763,-2.0763,-2.0763,0,0,-2.1007,-2.099,-2.0979,-2.0949,-2.0935,-2.0915,-2.0917,-2.0897,-2.0882,-2.0875,-2.085,-2.0838,-2.0818,-2.0792,-2.078,-2.0782,-2.0743,-2.0752,-2.0752,-2.075,-2.0735,-2.0732,-2.073,-2.0762,-2.0762,-2.0763,0,0,-2.0989,-2.0974,-2.0954,-2.094,-2.0918,-2.0907,-2.0902,-2.0879,-2.0871,-2.0846,-2.084,-2.0823,-2.079,-2.0775,-2.0764,-2.074,-2.0737,-2.0735,-2.0727,-2.0712,-2.071,-2.0708,-2.07,-2.0697,-2.0732,-2.0732,-2.0732,0,-2.0986,-2.0956,-2.0944,-2.0924,-2.0911,-2.0904,-2.0884,-2.087,-2.0844,-2.0835,-2.0838,-2.0796,-2.0781,-2.0752,-2.0746,-2.0737,-2.0731,-2.0737,-2.0711,-2.0709,-2.0707,-2.0699,-2.0696,-2.0732,-2.0732,-2.0732,-2.0732,0,-2.0953,-2.0933,-2.0919,-2.0893,-2.0879,-2.0859,-2.0844,-2.0831,-2.0826,-2.0815,-2.0789,-2.0772,-2.0749,-2.0742,-2.0736,-2.0712,-2.0714,-2.0714,-2.0719,-2.0704,-2.0696,-2.0693,-2.0732,-2.0732,-2.0732,-2.0732,0,0,-2.0935,-2.0903,-2.0899,-2.0887,-2.0863,-2.0847,-2.0827,-2.0804,-2.0793,-2.0775,-2.0758,-2.073,-2.0731,-2.0718,-2.071,-2.0698,-2.0681,-2.07,-2.0699,-2.0697,-2.0653,-2.0652,-2.0649,-2.0678,-2.0678,-2.0677,-2.0654,0,-2.0913,-2.0877,-2.0866,-2.0835,-2.0816,-2.0809,-2.0792,-2.0775,-2.0765,-2.0748,-2.0736,-2.0716,-2.0719,-2.0711,-2.0698,-2.0685,-2.0671,-2.0687,-2.0662,-2.0662,-2.0667,-2.0644,-2.0644,-2.0623,-2.0651,-2.0651,-2.065,0,-2.0883,-2.0864,-2.0831,-2.081,-2.0801,-2.0786,-2.0764,-2.0748,-2.0729,-2.0722,-2.0708,-2.0702,-2.0681,-2.0688,-2.0659,-2.0669,-2.0659,-2.0651,-2.065,-2.0647,-2.0655,-2.064,-2.0616,-2.0612,-2.0645,-2.0646,-2.0646,0,-2.0873,-2.0839,-2.0815,-2.0806,-2.078,-2.0769,-2.0758,-2.074,-2.0727,-2.0709,-2.07,-2.068,-2.0669,-2.0654,-2.0642,-2.0648,-2.0615,-2.062,-2.0608,-2.0609,-2.0601,-2.0602,-2.0574,-2.0595,-2.0595,-2.0595,-2.0595,0,-2.0849,-2.0829,-2.0811,-2.0796,-2.0774,-2.0762,-2.074,-2.0729,-2.0713,-2.0696,-2.0689,-2.0674,-2.066,-2.0643,-2.0634,-2.0612,-2.0607,-2.0601,-2.0598,-2.0601,-2.0602,-2.0593,-2.0594,-2.0594,-2.0595,-2.0595,-2.0595,0,-2.0834,-2.0821,-2.0794,-2.0772,-2.0766,-2.075,-2.0732,-2.0717,-2.0707,-2.0685,-2.068,-2.0663,-2.0643,-2.063,-2.0604,-2.0598,-2.0573,-2.0572,-2.058,-2.0578,-2.0567,-2.0568,-2.0533,-2.0528,-2.0553,-2.0553,-2.0553,0,-2.082,-2.0804,-2.078,-2.0768,-2.0757,-2.0738,-2.0725,-2.0713,-2.07,-2.0678,-2.0666,-2.0645,-2.0627,-2.0595,-2.0581,-2.0561,-2.0559,-2.0548,-2.0556,-2.0559,-2.0559,-2.0559,-2.0558,-2.0547,-2.0546,-2.0546,-2.0546,0,-2.0795,-2.079,-2.0771,-2.075,-2.0735,-2.0718,-2.0701,-2.0692,-2.0677,-2.0663,-2.0641,-2.0628,-2.0601,-2.0581,-2.056,-2.0549,-2.0545,-2.0544,-2.054,-2.0542,-2.0547,-2.0544,-2.0575,-2.0545,-2.0545,-2.0545,-2.0545,-2.0545,-2.078,-2.0766,-2.0747,-2.0726,-2.0712,-2.0697,-2.0682,-2.067,-2.0652,-2.0629,-2.0623,-2.0601,-2.0583,-2.0555,-2.0543,-2.0526,-2.0528,-2.0522,-2.0521,-2.052,-2.0519,-2.055,-2.0522,-2.0522,-2.0522,-2.0522,-2.0522,0,-2.0755,-2.0743,-2.0724,-2.07,-2.0685,-2.0682,-2.0664,-2.0651,-2.0631,-2.0615,-2.0597,-2.0573,-2.0553,-2.0538,-2.0517,-2.0507,-2.0504,-2.0502,-2.0502,-2.05,-2.0519,-2.0524,-2.0504,-2.0504,-2.0504,-2.0504,-2.0504,-2.0504,-2.074,-2.0716,-2.0708,-2.0678,-2.0666,-2.0643,-2.0633,-2.0619,-2.0605,-2.0579,-2.0562,-2.0552,-2.0536,-2.0514,-2.0496,-2.0492,-2.0485,-2.0482,-2.0478,-2.0496,-2.0498,-2.05,-2.0505,-2.0481,-2.0481,-2.046,-2.046,-2.046]},{"header":{"parameterUnit":"m.s-1","parameterCategory":1,"la1":30.2991,"la2":30.254,"lo1":-89.0895,"lo2":-89.0444,"dy":0.0017,"dx":0.0017,"nx":28,"ny":28,"refTime":"2024-08-29T03:00:00:Z","depth":0,"parameterNumber":3,"parameterNumberName":"V-component_of_WINDS"},"data":[0,0,0,0,0,0,0,0,0,0,0,0,0,0,0,0,0,0,0,0,0,0,0,0,0,0,0,0,0,0,0,0,0,0,0,0,0,0,0,0,0,0,0,0,0,0,0,0,0,0,0,0,0,0,0,0,0,0,3.9225,3.9226,0,3.9329,3.933,3.9332,3.9386,3.9386,3.9387,3.9387,3.9486,3.9489,3.9491,0,0,0,0,0,0,0,0,0,0,0,0,0,3.9067,3.907,3.9225,3.9226,3.9227,3.9329,3.933,3.9332,3.9386,3.9386,3.9387,3.9387,3.9485,3.9488,3.9491,0,0,0,0,0,0,0,0,0,0,0,0,0,3.915,3.907,3.9224,3.9267,3.9272,3.9329,3.9331,3.9332,3.9386,3.9386,3.9387,3.9387,3.9484,3.9488,3.9492,3.9512,0,0,3.9504,3.9505,0,0,0,0,0,0,0,0,3.9145,3.9155,3.9259,3.9264,3.927,3.9345,3.9311,3.9392,3.9386,3.9343,3.9387,3.9387,3.9439,3.9446,3.9465,3.9517,3.9521,3.9504,3.9506,3.9508,3.9509,0,0,0,0,0,0,0,3.9139,3.9151,3.9266,3.9261,3.9267,3.9279,3.9291,3.9327,3.9388,3.9346,3.9351,3.9363,3.9441,3.9461,3.9468,3.9523,3.9504,3.9507,3.951,3.9511,3.9598,3.9598,0,0,0,0,0,0,3.9127,3.9146,3.9263,3.9269,3.9207,3.9282,3.9295,3.9321,3.9388,3.9399,3.9362,3.9365,3.9455,3.9463,3.9472,3.9502,3.9508,3.9511,3.9514,3.9598,3.9598,3.9599,0,0,0,0,0,0,3.9124,3.9137,3.9258,3.9209,3.9225,3.9284,3.9312,3.9323,3.9343,3.94,3.9411,3.9372,3.9455,3.9466,3.9503,3.9506,3.9513,3.9517,3.9598,3.9598,3.9598,3.9561,0,0,0,0,0,0,3.9119,3.9136,3.9145,3.9209,3.9228,3.9289,3.9313,3.9324,3.935,3.9354,3.9412,3.9422,3.9456,3.9497,3.9507,3.9511,3.952,3.9598,3.9598,3.9598,3.9562,3.9559,3.9557,0,0,0,0,0,3.9113,3.9128,3.9145,3.9159,3.9241,3.9289,3.93,3.9341,3.935,3.9359,3.9397,3.942,3.9504,3.95,3.9512,3.9517,3.9598,3.9598,3.9598,3.9563,3.956,3.9557,0,0,0,0,0,0,3.906,3.9137,3.9157,3.9193,3.9235,3.9298,3.9311,3.9336,3.9374,3.9376,3.9424,3.9437,3.9469,3.9497,3.9491,3.9542,3.9554,3.9556,3.9522,3.952,3.9518,3.951,3.9523,0,0,0,0,0,3.9053,3.9088,3.9152,3.9178,3.9198,3.9251,3.9274,3.9303,3.9346,3.9363,3.9403,3.9443,3.9479,3.9501,3.9537,3.9566,3.958,3.9576,3.9574,3.9571,3.9573,3.9592,3.9592,3.9599,3.9599,3.9599,0,0,3.9037,3.9084,3.9102,3.9169,3.9204,3.9238,3.9265,3.9299,3.9324,3.9367,3.9406,3.9436,3.9484,3.9518,3.9534,3.9542,3.9574,3.9572,3.9569,3.9572,3.9592,3.9591,3.9591,3.9599,3.9599,3.9599,0,0,3.9027,3.9066,3.9093,3.9129,3.9184,3.922,3.9226,3.9287,3.931,3.935,3.9384,3.9413,3.9473,3.9506,3.9531,3.9537,3.9559,3.9546,3.9534,3.9553,3.9552,3.9552,3.9555,3.9555,3.9548,3.9548,3.9548,0,3.9001,3.9055,3.9103,3.9136,3.9164,3.9209,3.9236,3.9267,3.9329,3.9347,3.9355,3.9434,3.9469,3.9512,3.9514,3.9532,3.954,3.954,3.9549,3.9549,3.9549,3.9553,3.9554,3.9546,3.9546,3.9546,3.9546,0,3.902,3.9058,3.9072,3.9136,3.9165,3.9195,3.9246,3.927,3.9297,3.9331,3.9371,3.9415,3.9462,3.9474,3.9499,3.9521,3.9525,3.954,3.9553,3.9546,3.955,3.9552,3.9543,3.9544,3.9544,3.9545,0,0,3.8978,3.907,3.9074,3.9104,3.9169,3.9198,3.923,3.9279,3.9299,3.934,3.9368,3.942,3.9435,3.9463,3.9492,3.9509,3.9512,3.9522,3.9524,3.952,3.954,3.9529,3.953,3.9528,3.9528,3.9528,3.9537,0,3.8977,3.904,3.9085,3.9129,3.9164,3.9208,3.9236,3.9278,3.9311,3.9345,3.938,3.9417,3.9434,3.9452,3.947,3.9508,3.9517,3.9508,3.9553,3.9554,3.954,3.9532,3.9519,3.9525,3.9538,3.9539,3.9539,0,3.8985,3.903,3.9078,3.9142,3.9159,3.9183,3.9233,3.9264,3.9313,3.9336,3.9369,3.94,3.9435,3.9445,3.9493,3.9486,3.9507,3.9529,3.953,3.9536,3.9546,3.9537,3.9527,3.9528,3.9542,3.9541,3.9541,0,3.8951,3.9022,3.9062,3.9086,3.9161,3.9177,3.9208,3.9258,3.9285,3.9327,3.9345,3.939,3.9414,3.9447,3.9489,3.9493,3.9534,3.9547,3.9553,3.9552,3.956,3.9559,3.9553,3.9573,3.9572,3.9572,3.9572,0,3.8946,3.8974,3.9048,3.9071,3.9105,3.9155,3.9186,3.9221,3.9265,3.9295,3.9335,3.9362,3.9416,3.945,3.9482,3.9518,3.9528,3.9547,3.9556,3.9544,3.9542,3.9559,3.956,3.9573,3.9573,3.9573,3.9573,0,3.8913,3.8963,3.9009,3.9078,3.9096,3.9117,3.9175,3.9199,3.9236,3.9274,3.9286,3.9343,3.9385,3.9431,3.9486,3.9509,3.9543,3.9554,3.9527,3.9532,3.9537,3.9536,3.9542,3.9546,3.9561,3.9561,3.9561,0,3.8906,3.893,3.9002,3.9028,3.9059,3.9098,3.9127,3.9178,3.9206,3.9265,3.9282,3.9328,3.9368,3.9433,3.9477,3.9521,3.9534,3.9534,3.9541,3.9529,3.9535,3.9534,3.9537,3.9531,3.9531,3.953,3.953,0,3.8891,3.8915,3.8957,3.9009,3.9043,3.9085,3.9128,3.9146,3.9205,3.9234,3.928,3.9311,3.9371,3.9415,3.9465,3.9496,3.9522,3.9528,3.9532,3.952,3.9504,3.9514,3.9522,3.9527,3.9527,3.9528,3.9528,3.9528,3.8872,3.8895,3.8951,3.8997,3.9036,3.9076,3.9103,3.9145,3.9184,3.9239,3.9266,3.9311,3.9361,3.9431,3.9461,3.9496,3.9505,3.951,3.9511,3.9512,3.951,3.9499,3.9505,3.9505,3.9506,3.9506,3.9506,0,3.8859,3.8898,3.8939,3.9001,3.9037,3.9063,3.9112,3.914,3.918,3.9225,3.9265,3.9317,3.9362,3.9411,3.9459,3.9477,3.9491,3.9488,3.9487,3.9494,3.9499,3.9491,3.9476,3.9476,3.9476,3.9476,3.9476,3.9476,3.8856,3.8899,3.893,3.8992,3.903,3.9078,3.9104,3.9141,3.9178,3.9236,3.9274,3.9308,3.9355,3.9406,3.9448,3.9461,3.9477,3.947,3.9487,3.9491,3.9493,3.9495,3.9489,3.9473,3.9473,3.9479,3.9479,3.9479]}]]